Simultaneous Nadir Overpasses (SNOs) Predictions

Prediction of SNOs between AQUA and METOP-C Satellite Orbit:

Table of predicted SNOs for the next 14.0 days since TLE Epoch: 10/25/2025
Index Date (AQUA) Time (AQUA) Lat,Lon (AQUA) SZA (AQUA ) Date (METOP-C) Time (METOP-C) Lat,Lon (METOP-C) SZA (METOP-C ) Distance(km) Time Diff (sec)
1 10/26/2025 02:50:21 77.09, 142.09 89.65 10/26/2025 02:49:57 77.12, 142.09 89.68 2.99 24
2 10/26/2025 03:39:39 -77.14, -50.42 90.30 10/26/2025 03:40:38 -77.13, -50.53 90.30 2.99 59
3 10/28/2025 14:48:27 -77.14, 142.45 89.46 10/28/2025 14:48:14 -77.11, 142.48 89.50 3.80 13
4 10/28/2025 15:37:45 77.16, -49.94 90.57 10/28/2025 15:38:53 77.16, -49.96 90.58 0.81 68
5 10/31/2025 01:57:05 -76.74, -23.14 89.00 10/31/2025 01:55:59 -76.68, -26.12 89.16 76.46 66
6 10/31/2025 02:46:31 77.13, 143.06 91.35 10/31/2025 02:46:29 77.13, 143.00 91.35 1.55 2
7 10/31/2025 03:35:55 -77.44, -50.55 88.37 10/31/2025 03:37:03 -77.45, -48.28 88.28 54.84 68
8 11/02/2025 13:55:16 77.10, -23.97 92.12 11/02/2025 13:54:05 77.09, -24.07 92.09 3.21 71
9 11/02/2025 14:44:34 -77.15, 143.54 87.84 11/02/2025 14:44:45 -77.15, 143.55 87.83 0.87 11
10 11/05/2025 01:53:18 -77.13, -23.52 87.09 11/05/2025 01:52:21 -77.11, -23.54 87.12 2.63 57
11 11/05/2025 02:42:36 77.16, 144.06 92.95 11/05/2025 02:43:00 77.15, 143.97 92.95 2.59 24
12 11/07/2025 13:51:18 77.16, -23.04 93.69 11/07/2025 13:50:34 77.14, -22.98 93.66 2.55 44



Historial Predications of SNOs between AQUA and METOP-C
